[[{"header":{"parameterUnit":"m.s-1","parameterCategory":1,"la1":30.2991,"la2":30.254,"lo1":-89.0895,"lo2":-89.0444,"dy":0.0017,"dx":0.0017,"nx":28,"ny":28,"refTime":"2025-12-31T03:00:00:Z","depth":0,"parameterNumber":2,"parameterNumberName":"U-component_of_WINDS"},"data":[0,0,0,0,0,0,0,0,0,0,0,0,0,0,0,0,0,0,0,0,0,0,0,0,0,0,0,0,0,0,0,0,0,0,0,0,0,0,0,0,0,0,0,0,0,0,0,0,0,0,0,0,0,0,0,0,0,0,1.4857,1.4857,0,1.4854,1.4854,1.4854,1.4841,1.484,1.484,1.484,1.4836,1.4836,1.4837,0,0,0,0,0,0,0,0,0,0,0,0,0,1.4852,1.4852,1.4857,1.4857,1.4857,1.4854,1.4854,1.4854,1.4841,1.484,1.484,1.484,1.4836,1.4836,1.4837,0,0,0,0,0,0,0,0,0,0,0,0,0,1.4852,1.4852,1.4857,1.485,1.4849,1.4854,1.4854,1.4854,1.4841,1.484,1.484,1.4839,1.4836,1.4836,1.4837,1.4847,0,0,1.4837,1.4838,0,0,0,0,0,0,0,0,1.4852,1.4852,1.4851,1.4851,1.485,1.4847,1.4851,1.4852,1.4841,1.4844,1.484,1.4839,1.484,1.484,1.484,1.4847,1.4847,1.4837,1.4838,1.4838,1.4838,0,0,0,0,0,0,0,1.4852,1.4852,1.4856,1.4851,1.485,1.4847,1.4847,1.4851,1.4845,1.4844,1.4843,1.4843,1.484,1.484,1.484,1.4847,1.4837,1.4838,1.4838,1.4838,1.4863,1.4863,0,0,0,0,0,0,1.4853,1.4852,1.4856,1.4856,1.485,1.4848,1.4847,1.4849,1.4845,1.4844,1.4843,1.4842,1.484,1.484,1.484,1.4853,1.4838,1.4838,1.4838,1.4862,1.4863,1.4864,0,0,0,0,0,0,1.4853,1.4854,1.4856,1.4854,1.4854,1.4848,1.485,1.4849,1.4849,1.4844,1.4843,1.4845,1.484,1.484,1.4846,1.4852,1.4838,1.4838,1.4862,1.4863,1.4863,1.4878,0,0,0,0,0,0,1.4853,1.4854,1.4858,1.4854,1.4854,1.4862,1.485,1.4849,1.485,1.4848,1.4845,1.4844,1.4839,1.4845,1.4846,1.4852,1.4839,1.4861,1.4862,1.4863,1.4877,1.4879,1.4881,0,0,0,0,0,1.4853,1.4862,1.4858,1.4858,1.4859,1.4862,1.4862,1.4856,1.485,1.4854,1.4851,1.4844,1.4852,1.4846,1.4847,1.4853,1.4861,1.4862,1.4863,1.4876,1.4879,1.4881,0,0,0,0,0,0,1.4866,1.4861,1.4857,1.4865,1.4864,1.486,1.4865,1.4859,1.486,1.4859,1.4851,1.4851,1.4858,1.4856,1.485,1.4864,1.4855,1.4856,1.4865,1.4867,1.4869,1.4869,1.4839,0,0,0,0,0,1.487,1.4873,1.4868,1.4876,1.4876,1.487,1.4872,1.4867,1.4866,1.4866,1.4863,1.4862,1.4864,1.4866,1.4867,1.4877,1.4876,1.4881,1.4884,1.4885,1.4886,1.4891,1.4894,1.4867,1.4867,1.4867,0,0,1.4878,1.4875,1.4878,1.4879,1.4877,1.4881,1.487,1.4874,1.4877,1.4866,1.4872,1.487,1.4868,1.4876,1.488,1.4875,1.4894,1.4887,1.4888,1.4888,1.4893,1.4895,1.4898,1.4868,1.4868,1.4868,0,0,1.4894,1.4892,1.4899,1.4898,1.4896,1.4893,1.4894,1.4891,1.489,1.4895,1.4888,1.4891,1.4894,1.4894,1.4894,1.491,1.4904,1.4911,1.4922,1.4927,1.4929,1.4931,1.4937,1.4939,1.4912,1.4912,1.4912,0,1.4904,1.4908,1.4902,1.4907,1.4908,1.4899,1.4905,1.4905,1.4904,1.4904,1.4899,1.4904,1.4903,1.491,1.4914,1.4915,1.4916,1.4911,1.4929,1.4931,1.4933,1.4938,1.494,1.4913,1.4913,1.4913,1.4913,0,1.4921,1.4924,1.493,1.4929,1.493,1.4936,1.4931,1.4933,1.4928,1.4925,1.4931,1.4929,1.493,1.4932,1.4928,1.4939,1.4936,1.4931,1.4921,1.4936,1.4941,1.4943,1.4914,1.4914,1.4914,1.4914,0,0,1.4944,1.4941,1.4943,1.4943,1.4941,1.4944,1.4949,1.495,1.4952,1.4952,1.4956,1.496,1.4955,1.4955,1.495,1.4955,1.4968,1.4948,1.4948,1.4952,1.4981,1.4985,1.4988,1.4964,1.4965,1.4965,1.4981,0,1.496,1.4968,1.4963,1.4973,1.4976,1.4968,1.4972,1.4972,1.4969,1.4972,1.4969,1.4972,1.4964,1.4965,1.4969,1.4966,1.4974,1.4965,1.4968,1.4968,1.4968,1.499,1.4995,1.501,1.4983,1.4983,1.4983,0,1.4979,1.498,1.4989,1.4987,1.4988,1.4992,1.4993,1.4996,1.4995,1.4993,1.4994,1.4988,1.4993,1.4985,1.4992,1.4986,1.4987,1.4986,1.4986,1.4986,1.4976,1.4991,1.5014,1.5017,1.4986,1.4986,1.4986,0,1.4995,1.4999,1.5005,1.5005,1.5003,1.5006,1.5005,1.5004,1.5005,1.5006,1.5007,1.5008,1.5009,1.5011,1.5006,1.5,1.5013,1.5004,1.5012,1.5012,1.5014,1.5014,1.5039,1.5016,1.5016,1.5016,1.5016,0,1.5012,1.5018,1.5012,1.5016,1.5023,1.5017,1.5024,1.5023,1.5022,1.5025,1.5018,1.5022,1.5016,1.5018,1.5015,1.5021,1.5021,1.502,1.5019,1.502,1.5021,1.5021,1.5019,1.5016,1.5016,1.5016,1.5016,0,1.5031,1.5027,1.5034,1.5031,1.5031,1.5036,1.5034,1.5037,1.5035,1.5039,1.504,1.5036,1.5039,1.5034,1.5037,1.5034,1.5043,1.504,1.5043,1.5042,1.505,1.5049,1.5075,1.5078,1.5053,1.5054,1.5054,0,1.5042,1.5047,1.5045,1.5047,1.5047,1.505,1.5051,1.5046,1.5048,1.5048,1.5051,1.5054,1.5055,1.5061,1.5058,1.506,1.5057,1.5066,1.5057,1.5059,1.5057,1.5057,1.5057,1.5068,1.5068,1.5068,1.5068,0,1.5063,1.5061,1.5063,1.5065,1.5067,1.5068,1.5068,1.507,1.5065,1.5067,1.507,1.5072,1.5074,1.5077,1.5078,1.5077,1.5072,1.5071,1.5073,1.5074,1.5076,1.5075,1.5048,1.507,1.507,1.507,1.507,1.507,1.5078,1.5082,1.5081,1.5084,1.5084,1.5085,1.5088,1.5086,1.5089,1.5091,1.5087,1.5091,1.5091,1.5092,1.5092,1.5095,1.5091,1.5094,1.5094,1.5095,1.5096,1.5076,1.5095,1.5095,1.5095,1.5095,1.5095,0,1.5098,1.5097,1.51,1.5101,1.5103,1.5099,1.5099,1.5101,1.5105,1.5105,1.5107,1.5111,1.5113,1.5111,1.5113,1.5116,1.5113,1.5117,1.5116,1.5116,1.5099,1.5098,1.5118,1.5118,1.5118,1.5118,1.5118,1.5118,1.5108,1.5115,1.5113,1.5119,1.5118,1.5122,1.5123,1.5124,1.5124,1.5128,1.513,1.5129,1.5128,1.513,1.5132,1.5132,1.5133,1.5137,1.5135,1.5119,1.5117,1.5115,1.5113,1.5137,1.5137,1.5151,1.5151,1.5151]},{"header":{"parameterUnit":"m.s-1","parameterCategory":1,"la1":30.2991,"la2":30.254,"lo1":-89.0895,"lo2":-89.0444,"dy":0.0017,"dx":0.0017,"nx":28,"ny":28,"refTime":"2025-12-31T03:00:00:Z","depth":0,"parameterNumber":3,"parameterNumberName":"V-component_of_WINDS"},"data":[0,0,0,0,0,0,0,0,0,0,0,0,0,0,0,0,0,0,0,0,0,0,0,0,0,0,0,0,0,0,0,0,0,0,0,0,0,0,0,0,0,0,0,0,0,0,0,0,0,0,0,0,0,0,0,0,0,0,-0.5668,-0.5669,0,-0.5754,-0.5755,-0.5756,-0.5775,-0.5774,-0.5774,-0.5773,-0.5863,-0.5866,-0.5869,0,0,0,0,0,0,0,0,0,0,0,0,0,-0.5523,-0.5525,-0.5668,-0.5669,-0.567,-0.5754,-0.5755,-0.5756,-0.5775,-0.5774,-0.5773,-0.5773,-0.5862,-0.5865,-0.5869,0,0,0,0,0,0,0,0,0,0,0,0,0,-0.5595,-0.5526,-0.5668,-0.569,-0.5692,-0.5754,-0.5755,-0.5757,-0.5775,-0.5774,-0.5773,-0.5772,-0.5861,-0.5865,-0.5869,-0.5916,0,0,-0.5883,-0.5885,0,0,0,0,0,0,0,0,-0.5591,-0.56,-0.5685,-0.5688,-0.5691,-0.5753,-0.5737,-0.581,-0.5775,-0.5744,-0.5773,-0.5772,-0.5827,-0.5834,-0.5853,-0.592,-0.5924,-0.5884,-0.5886,-0.5888,-0.5889,0,0,0,0,0,0,0,-0.5586,-0.5597,-0.5702,-0.5686,-0.569,-0.5696,-0.5705,-0.5751,-0.579,-0.5746,-0.5748,-0.5758,-0.5829,-0.5848,-0.5855,-0.5925,-0.5883,-0.5887,-0.589,-0.5892,-0.6038,-0.6039,0,0,0,0,0,0,-0.5577,-0.5592,-0.5699,-0.5705,-0.5638,-0.5699,-0.571,-0.5734,-0.5789,-0.5797,-0.5759,-0.5758,-0.5841,-0.585,-0.5858,-0.5918,-0.5888,-0.5892,-0.5895,-0.6037,-0.6038,-0.6039,0,0,0,0,0,0,-0.5574,-0.5586,-0.5696,-0.5649,-0.5663,-0.5703,-0.573,-0.5736,-0.5756,-0.5798,-0.5806,-0.5771,-0.5841,-0.5852,-0.5902,-0.5921,-0.5894,-0.5898,-0.6035,-0.6037,-0.6039,-0.6037,0,0,0,0,0,0,-0.5569,-0.5585,-0.5602,-0.5649,-0.5666,-0.5737,-0.5731,-0.5739,-0.5763,-0.5764,-0.5812,-0.5819,-0.5841,-0.5895,-0.5906,-0.5927,-0.5902,-0.6034,-0.6036,-0.6038,-0.6036,-0.6039,-0.6041,0,0,0,0,0,-0.5564,-0.5598,-0.5603,-0.5616,-0.5688,-0.5738,-0.5748,-0.5771,-0.5765,-0.5783,-0.5811,-0.5818,-0.5917,-0.59,-0.5913,-0.5935,-0.6033,-0.6035,-0.6038,-0.6034,-0.6038,-0.6041,0,0,0,0,0,0,-0.5552,-0.5604,-0.561,-0.566,-0.5695,-0.5741,-0.5765,-0.5774,-0.5812,-0.5811,-0.5839,-0.5849,-0.5898,-0.5921,-0.5902,-0.5984,-0.5975,-0.598,-0.5967,-0.5971,-0.5974,-0.5968,-0.5906,0,0,0,0,0,-0.5555,-0.5591,-0.5635,-0.5675,-0.5692,-0.5726,-0.5748,-0.5763,-0.58,-0.5815,-0.5846,-0.5883,-0.5922,-0.5948,-0.5986,-0.6038,-0.6051,-0.606,-0.6063,-0.6065,-0.607,-0.6102,-0.6107,-0.6048,-0.6048,-0.6048,0,0,-0.5562,-0.5595,-0.5616,-0.5674,-0.5702,-0.574,-0.5738,-0.5777,-0.5806,-0.5821,-0.5871,-0.5895,-0.5938,-0.599,-0.6014,-0.601,-0.6089,-0.6069,-0.607,-0.6074,-0.6105,-0.6111,-0.6116,-0.605,-0.605,-0.6049,0,0,-0.5595,-0.5622,-0.566,-0.5689,-0.5732,-0.5754,-0.5763,-0.5809,-0.5826,-0.5876,-0.5889,-0.5924,-0.599,-0.6021,-0.6045,-0.6091,-0.61,-0.6102,-0.6118,-0.6148,-0.6153,-0.6157,-0.6176,-0.6182,-0.6107,-0.6107,-0.6107,0,-0.5599,-0.5655,-0.5678,-0.5718,-0.5744,-0.5759,-0.5798,-0.5825,-0.5879,-0.5897,-0.5891,-0.5977,-0.6007,-0.6067,-0.6079,-0.6097,-0.611,-0.6098,-0.615,-0.6155,-0.6159,-0.6177,-0.6184,-0.6107,-0.6107,-0.6107,-0.6107,0,-0.5659,-0.5698,-0.5723,-0.5775,-0.5803,-0.5842,-0.5872,-0.5898,-0.5911,-0.5934,-0.5987,-0.6022,-0.607,-0.6085,-0.6097,-0.6148,-0.6145,-0.6144,-0.6136,-0.6165,-0.6182,-0.6189,-0.6107,-0.6107,-0.6107,-0.6107,0,0,-0.5686,-0.5751,-0.576,-0.5785,-0.5834,-0.5865,-0.5905,-0.5951,-0.5975,-0.6011,-0.6047,-0.6104,-0.6105,-0.6132,-0.6148,-0.6175,-0.6212,-0.6172,-0.6174,-0.618,-0.6272,-0.6274,-0.6281,-0.6217,-0.6219,-0.622,-0.627,0,-0.5727,-0.5799,-0.5822,-0.5883,-0.5921,-0.5936,-0.5972,-0.6007,-0.603,-0.6066,-0.6091,-0.6132,-0.6129,-0.6146,-0.6173,-0.6202,-0.6231,-0.6198,-0.6253,-0.6255,-0.6244,-0.629,-0.6291,-0.6337,-0.6276,-0.6278,-0.6278,0,-0.5783,-0.5821,-0.5886,-0.5932,-0.5949,-0.598,-0.6026,-0.6059,-0.61,-0.6115,-0.6146,-0.6161,-0.6205,-0.6193,-0.6255,-0.6233,-0.6256,-0.6274,-0.6276,-0.6284,-0.627,-0.6301,-0.6351,-0.6359,-0.6289,-0.6288,-0.6287,0,-0.58,-0.5867,-0.5915,-0.5936,-0.599,-0.6012,-0.6036,-0.6075,-0.6102,-0.6142,-0.616,-0.6204,-0.6229,-0.6263,-0.629,-0.6278,-0.6351,-0.634,-0.6367,-0.6366,-0.6383,-0.6382,-0.644,-0.6394,-0.6394,-0.6394,-0.6394,0,-0.5844,-0.5884,-0.5924,-0.5954,-0.5999,-0.6025,-0.607,-0.6095,-0.613,-0.6166,-0.6182,-0.6215,-0.6247,-0.6286,-0.6307,-0.6357,-0.6367,-0.6382,-0.6388,-0.6382,-0.6381,-0.64,-0.6398,-0.6396,-0.6396,-0.6395,-0.6395,0,-0.5871,-0.5899,-0.5953,-0.6001,-0.6013,-0.6045,-0.6086,-0.6117,-0.614,-0.6186,-0.6198,-0.6236,-0.6282,-0.6312,-0.637,-0.6384,-0.644,-0.6444,-0.6427,-0.643,-0.6456,-0.6454,-0.653,-0.6542,-0.6486,-0.6486,-0.6487,0,-0.5898,-0.5929,-0.598,-0.6005,-0.6029,-0.6069,-0.6097,-0.6124,-0.6152,-0.6202,-0.6227,-0.6274,-0.6313,-0.6386,-0.6419,-0.6465,-0.6471,-0.6495,-0.6478,-0.6472,-0.6475,-0.6473,-0.6478,-0.6498,-0.6498,-0.6499,-0.6499,0,-0.5944,-0.5957,-0.5996,-0.604,-0.6073,-0.6109,-0.6146,-0.6166,-0.6199,-0.6231,-0.6278,-0.6308,-0.6369,-0.6416,-0.6465,-0.6491,-0.6502,-0.6504,-0.6513,-0.6508,-0.6498,-0.6507,-0.6437,-0.6502,-0.6502,-0.6502,-0.6502,-0.6501,-0.5974,-0.6003,-0.6044,-0.6087,-0.6118,-0.6152,-0.6183,-0.6211,-0.6251,-0.6302,-0.6316,-0.6366,-0.6407,-0.6474,-0.6501,-0.6541,-0.6538,-0.6551,-0.6554,-0.6557,-0.6559,-0.649,-0.655,-0.655,-0.655,-0.655,-0.6549,0,-0.6022,-0.605,-0.6089,-0.614,-0.6175,-0.6181,-0.6222,-0.6251,-0.6295,-0.6332,-0.6371,-0.6426,-0.6473,-0.651,-0.6558,-0.6584,-0.659,-0.6596,-0.6595,-0.6601,-0.6558,-0.6546,-0.659,-0.659,-0.659,-0.659,-0.659,-0.659,-0.6052,-0.6103,-0.612,-0.6187,-0.6214,-0.6263,-0.6287,-0.6319,-0.6349,-0.641,-0.6449,-0.6473,-0.6511,-0.6562,-0.6605,-0.6615,-0.6633,-0.6638,-0.665,-0.6608,-0.6604,-0.66,-0.659,-0.6642,-0.6642,-0.6691,-0.6691,-0.6691]}]]